Kuujjuaq Airport, Quebec

Past 24 Hour Conditions

This table is a summary of hourly weather conditions for the past 24 hours. This summary includes the following parameters: temperature, humidity, dew point, wind speed and direction, air pressure, visibility and/or wind chill and humidex.
Date / Time
(EDT)
Conditions Temp (°C) Humidity (%) Dew Point (°C) Wind (km/h) Pressure (kPa) Visibility (km)
20 September 2014
3:00 Mostly Cloudy 2 76 -2 SSE 19 100.1 24
2:00 Mostly Cloudy 2 75 -2 SSE 17 gust 29 100.3 24
1:00 Mostly Cloudy 2 77 -1 SE 11 100.5 24
00:00 Mostly Cloudy 2 80 -1 ESE 7 100.6 24
19 September 2014
23:00 Mostly Cloudy 2 76 -1 ESE 10 100.7 24
22:00 Mostly Cloudy 3 74 -2 SSE 11 100.9 24
21:00 Mostly Cloudy 2 73 -2 SSW 7 101.0 24
20:00 Mostly Cloudy N/A N/A -2 N/A N/A 24
19:00 Mostly Cloudy 4 62 -3 SSE 12 101.2 24
18:00 Mostly Cloudy 4 55 -4 SSE 11 101.2 24
17:00 Mostly Cloudy 5   49 -5 SW 8 101.3 24
16:00 Mostly Cloudy 5   47 -5 SW 11 101.4 24
15:00 Mostly Cloudy 4 47 -6 WNW 14 gust 29 101.5 24
14:00 Mostly Cloudy 4 50 -5 W 18 101.5 24
13:00 Mostly Cloudy 4 62 -3 WNW 18 gust 32 101.6 24
12:00 Mostly Cloudy 4 63 -3 WNW 26 gust 40 101.6 24
11:00 Mostly Cloudy 4 62 -3 WNW 20 gust 30 101.6 24
10:00 Mostly Cloudy 3 76 -1 W 16 gust 32 101.6 24
9:00 Mostly Cloudy 3 80 0 WNW 22 gust 34 101.6 24
8:00 Cloudy 3 84 0 W 14 gust 29 101.5 24
7:00 Mostly Cloudy 2 87 0 WSW 12 101.5 24
6:00 Mostly Cloudy 1   88 -1 WSW 6 101.5 24
5:00 Mostly Cloudy 3 81 0 WNW 16 101.4 24
4:00 Mostly Cloudy 3 80 0 WNW 15 gust 31 101.4 24
3:00 Mostly Cloudy 3 80 0 WNW 17 gust 32 101.3 24
N/A
Not available
 ↑ 
Highest temperature
 ↓ 
Lowest temperature

If you require additional historical weather information, please visit Climate Data Online.